| time (UTC) | temp C | wind direction | speed KPH | gust KPH | rain 1hr cm | rain 24hr cm | rain mn cm | humidity % | barometer mb |
| 20260906030008 | 30 | 103 | 6.4 | 14.5 | 0.00 | 0.00 | 0.00 | 61 | 1010.4 |
| 20260906024505 | 31 | 71 | 3.2 | 12.9 | 0.00 | 0.00 | 0.00 | 60 | 1010.0 |
| 20260906023015 | 31 | 50 | 3.2 | 14.5 | 0.00 | 0.00 | 0.00 | 59 | 1009.5 |
| 20260906021506 | 31 | 58 | 3.2 | 9.7 | 0.00 | 0.00 | 0.00 | 59 | 1009.2 |
| 20260906020007 | 31 | 95 | 3.2 | 8.0 | 0.00 | 0.00 | 0.00 | 58 | 1008.9 |
| 20260906014505 | 31 | 59 | 3.2 | 14.5 | 0.00 | 0.00 | 0.00 | 56 | 1008.9 |
| 20260906013005 | 32 | 46 | 3.2 | 8.0 | 0.00 | 0.00 | 0.00 | 54 | 1008.8 |
| 20260906011505 | 32 | 119 | 3.2 | 12.9 | 0.00 | 0.00 | 0.00 | 53 | 1008.8 |
| 20260906010007 | 33 | 56 | 4.8 | 12.9 | 0.00 | 0.00 | 0.00 | 50 | 1008.7 |
| 20260906004509 | 33 | 70 | 4.8 | 14.5 | 0.00 | 0.00 | 0.00 | 47 | 1008.5 |
| 20260906003005 | 34 | 44 | 4.8 | 16.1 | 0.00 | 0.00 | 0.00 | 45 | 1008.4 |
| 20260906001505 | 35 | 83 | 6.4 | 14.5 | 0.00 | 0.00 | 0.00 | 43 | 1008.4 |
| 20260906000007 | 35 | 46 | 3.2 | 8.0 | 0.00 | 0.00 | 0.00 | 42 | 1008.3 |
| 20260905234505 | 36 | 74 | 3.2 | 8.0 | 0.00 | 0.00 | 0.00 | 41 | 1008.3 |
| 20260905233013 | 36 | 105 | 1.6 | 9.7 | 0.00 | 0.00 | 0.00 | 40 | 1008.2 |
| 20260905231505 | 36 | 56 | 4.8 | 9.7 | 0.00 | 0.00 | 0.00 | 39 | 1008.2 |
| 20260905230008 | 37 | 138 | 3.2 | 11.3 | 0.00 | 0.00 | 0.00 | 37 | 1008.3 |
| 20260905224505 | 36 | 234 | 1.6 | 8.0 | 0.00 | 0.00 | 0.00 | 37 | 1008.2 |
| 20260905223006 | 37 | 44 | 3.2 | 6.4 | 0.00 | 0.00 | 0.00 | 37 | 1008.3 |
| 20260905221507 | 37 | 63 | 1.6 | 12.9 | 0.00 | 0.00 | 0.00 | 37 | 1008.5 |
| 20260905220008 | 37 | 82 | 1.6 | 11.3 | 0.00 | 0.00 | 0.00 | 37 | 1008.6 |
| 20260905214505 | 36 | 33 | 1.6 | 9.7 | 0.00 | 0.00 | 0.00 | 39 | 1008.6 |
| 20260905213006 | 37 | 59 | 4.8 | 14.5 | 0.00 | 0.00 | 0.00 | 38 | 1008.6 |
| 20260905211515 | 37 | 25 | 3.2 | 11.3 | 0.00 | 0.00 | 0.00 | 38 | 1008.7 |
| 20260905210009 | 37 | 95 | 3.2 | 12.9 | 0.00 | 0.00 | 0.00 | 38 | 1008.8 |
| 20260905204505 | 36 | 61 | 4.8 | 12.9 | 0.00 | 0.00 | 0.00 | 38 | 1009.2 |
| 20260905203005 | 37 | 49 | 6.4 | 12.9 | 0.00 | 0.00 | 0.00 | 39 | 1009.5 |
| 20260905201505 | 37 | 236 | 1.6 | 9.7 | 0.00 | 0.00 | 0.00 | 39 | 1009.7 |
| 20260905200012 | 36 | 90 | 3.2 | 14.5 | 0.00 | 0.00 | 0.00 | 40 | 1009.8 |
| 20260905194505 | 36 | 36 | 4.8 | 16.1 | 0.00 | 0.00 | 0.00 | 41 | 1010.1 |
| 20260905193005 | 36 | 80 | 3.2 | 9.7 | 0.00 | 0.00 | 0.00 | 42 | 1010.4 |
| 20260905191505 | 36 | 92 | 6.4 | 11.3 | 0.00 | 0.00 | 0.00 | 40 | 1010.6 |
| 20260905190007 | 36 | 228 | 0.0 | 14.5 | 0.00 | 0.00 | 0.00 | 42 | 1010.8 |
| 20260905184513 | 36 | 200 | 3.2 | 19.3 | 0.00 | 0.00 | 0.00 | 39 | 1011.0 |
| 20260905183005 | 35 | 345 | 4.8 | 14.5 | 0.00 | 0.00 | 0.00 | 44 | 1011.3 |
| 20260905181505 | 35 | 120 | 3.2 | 11.3 | 0.00 | 0.00 | 0.00 | 45 | 1011.5 |
| 20260905180007 | 35 | 111 | 3.2 | 9.7 | 0.00 | 0.00 | 0.00 | 48 | 1012.1 |
| 20260905174505 | 35 | 82 | 3.2 | 12.9 | 0.00 | 0.00 | 0.00 | 48 | 1012.4 |
| 20260905173006 | 33 | 69 | 0.0 | 8.0 | 0.00 | 0.00 | 0.00 | 52 | 1012.5 |
| 20260905171504 | 33 | 244 | 3.2 | 14.5 | 0.00 | 0.00 | 0.00 | 53 | 1012.6 |
| 20260905170006 | 33 | 216 | 3.2 | 11.3 | 0.00 | 0.00 | 0.00 | 57 | 1012.7 |
| 20260905164513 | 32 | 225 | 8.0 | 16.1 | 0.00 | 0.00 | 0.00 | 56 | 1012.8 |
| 20260905163005 | 32 | 268 | 1.6 | 12.9 | 0.00 | 0.00 | 0.00 | 61 | 1012.8 |
| 20260905161507 | 31 | 238 | 4.8 | 16.1 | 0.00 | 0.00 | 0.00 | 63 | 1012.9 |
| 20260905160017 | 31 | 272 | 4.8 | 14.5 | 0.00 | 0.00 | 0.00 | 65 | 1012.9 |
| 20260905154505 | 30 | 234 | 4.8 | 12.9 | 0.00 | 0.00 | 0.00 | 69 | 1012.7 |
| 20260905153004 | 30 | 115 | 3.2 | 12.9 | 0.00 | 0.00 | 0.00 | 70 | 1012.8 |
| 20260905151505 | 30 | 117 | 1.6 | 8.0 | 0.00 | 0.00 | 0.00 | 73 | 1012.9 |
| 20260905150007 | 29 | 65 | 1.6 | 9.7 | 0.00 | 0.00 | 0.00 | 77 | 1013.0 |
| 20260905144504 | 27 | 247 | 1.6 | 12.9 | 0.00 | 0.00 | 0.00 | 81 | 1012.8 |
| 20260905143006 | 27 | 249 | 1.6 | 9.7 | 0.00 | 0.00 | 0.00 | 83 | 1012.9 |
| 20260905141506 | 27 | 197 | 3.2 | 6.4 | 0.00 | 0.00 | 0.00 | 84 | 1012.8 |
| 20260905140005 | 27 | 148 | 0.0 | 6.4 | 0.00 | 0.00 | 0.00 | 87 | 1012.6 |
| 20260905134503 | 26 | 250 | 0.0 | 3.2 | 0.00 | 0.00 | 0.00 | 91 | 1012.5 |
| 20260905133004 | 25 | 250 | 0.0 | 1.6 | 0.00 | 0.00 | 0.00 | 93 | 1012.6 |
| 20260905131504 | 25 | 250 | 0.0 | 1.6 | 0.00 | 0.00 | 0.00 | 94 | 1012.4 |
| 20260905130008 | 24 | 250 | 0.0 | 1.6 | 0.00 | 0.00 | 0.00 | 95 | 1012.3 |
| 20260905124503 | 24 | 250 | 0.0 | 0.0 | 0.00 | 0.00 | 0.00 | 94 | 1011.9 |
| 20260905123003 | 24 | 250 | 0.0 | 1.6 | 0.00 | 0.00 | 0.00 | 94 | 1011.9 |
| 20260905121504 | 24 | 250 | 0.0 | 1.6 | 0.00 | 0.00 | 0.00 | 94 | 1011.8 |
| 20260905120014 | 24 | 250 | 0.0 | 1.6 | 0.00 | 0.00 | 0.00 | 94 | 1011.7 |
| 20260905114504 | 24 | 250 | 0.0 | 1.6 | 0.00 | 0.00 | 0.00 | 94 | 1011.5 |
| 20260905113004 | 24 | 250 | 0.0 | 0.0 | 0.00 | 0.00 | 0.00 | 93 | 1011.4 |
| 20260905111504 | 24 | 250 | 0.0 | 1.6 | 0.00 | 0.00 | 0.00 | 93 | 1011.5 |
| 20260905110005 | 24 | 250 | 0.0 | 0.0 | 0.00 | 0.00 | 0.00 | 93 | 1011.3 |
| 20260905104504 | 24 | 250 | 0.0 | 0.0 | 0.00 | 0.00 | 0.00 | 92 | 1011.1 |
| 20260905103006 | 24 | 250 | 0.0 | 0.0 | 0.00 | 0.00 | 0.00 | 92 | 1011.2 |
| 20260905101504 | 25 | 250 | 0.0 | 1.6 | 0.00 | 0.00 | 0.00 | 92 | 1011.2 |
| 20260905100007 | 25 | 250 | 0.0 | 1.6 | 0.00 | 0.00 | 0.00 | 92 | 1011.1 |
| 20260905094505 | 25 | 250 | 0.0 | 1.6 | 0.00 | 0.00 | 0.00 | 91 | 1011.0 |
| 20260905093003 | 25 | 250 | 0.0 | 1.6 | 0.00 | 0.00 | 0.00 | 91 | 1011.1 |
| 20260905091507 | 25 | 250 | 0.0 | 3.2 | 0.00 | 0.00 | 0.00 | 90 | 1011.1 |
| 20260905090008 | 25 | 250 | 0.0 | 1.6 | 0.00 | 0.00 | 0.00 | 89 | 1011.1 |
| 20260905084503 | 25 | 247 | 0.0 | 3.2 | 0.00 | 0.00 | 0.00 | 89 | 1011.2 |
| 20260905083009 | 25 | 247 | 0.0 | 3.2 | 0.00 | 0.00 | 0.00 | 88 | 1011.3 |
| 20260905081503 | 25 | 250 | 0.0 | 6.4 | 0.00 | 0.00 | 0.00 | 88 | 1011.3 |
| 20260905080007 | 25 | 209 | 0.0 | 4.8 | 0.00 | 0.00 | 0.00 | 87 | 1011.4 |
| 20260905074503 | 25 | 257 | 0.0 | 4.8 | 0.00 | 0.00 | 0.00 | 87 | 1011.5 |
| 20260905073003 | 26 | 257 | 0.0 | 4.8 | 0.00 | 0.00 | 0.00 | 86 | 1011.5 |
| 20260905071503 | 26 | 60 | 0.0 | 6.4 | 0.00 | 0.00 | 0.00 | 86 | 1011.8 |
| 20260905070005 | 26 | 107 | 0.0 | 4.8 | 0.00 | 0.00 | 0.00 | 85 | 1011.8 |
| 20260905064504 | 26 | 113 | 0.0 | 6.4 | 0.00 | 0.00 | 0.00 | 84 | 1011.8 |
| 20260905063003 | 26 | 121 | 1.6 | 12.9 | 0.00 | 0.00 | 0.00 | 84 | 1011.8 |
| 20260905061504 | 26 | 117 | 1.6 | 9.7 | 0.00 | 0.00 | 0.00 | 82 | 1012.0 |
| 20260905060008 | 26 | 67 | 1.6 | 8.0 | 0.00 | 0.00 | 0.00 | 81 | 1012.0 |
| 20260905054506 | 26 | 63 | 1.6 | 9.7 | 0.00 | 0.00 | 0.00 | 80 | 1011.9 |
| 20260905053008 | 26 | 109 | 3.2 | 11.3 | 0.00 | 0.00 | 0.00 | 80 | 1011.9 |
| 20260905051506 | 27 | 71 | 3.2 | 11.3 | 0.00 | 0.00 | 0.00 | 78 | 1012.0 |
| 20260905050011 | 27 | 69 | 3.2 | 14.5 | 0.00 | 0.00 | 0.00 | 78 | 1012.1 |
| 20260905044509 | 27 | 113 | 3.2 | 12.9 | 0.00 | 0.00 | 0.00 | 77 | 1012.0 |
| 20260905043006 | 27 | 11 | 3.2 | 11.3 | 0.00 | 0.00 | 0.00 | 76 | 1011.9 |
| 20260905041507 | 27 | 106 | 3.2 | 12.9 | 0.00 | 0.00 | 0.00 | 75 | 1011.9 |
| 20260905040009 | 27 | 109 | 1.6 | 8.0 | 0.00 | 0.00 | 0.00 | 75 | 1011.9 |
| 20260905034511 | 27 | 98 | 1.6 | 8.0 | 0.00 | 0.00 | 0.00 | 74 | 1011.9 |
| 20260905033006 | 27 | 49 | 0.0 | 12.9 | 0.00 | 0.00 | 0.00 | 72 | 1011.8 |
| 20260905031505 | 28 | 70 | 0.0 | 4.8 | 0.00 | 0.00 | 0.00 | 71 | 1011.7 |